OPS 4682 DEB, 20048

Orbit data source: Space-Track

OPS 4682 DEB, 20048 is space debris in LEO originally from a launch on Sat, 03 Apr 1965 UTC launched from the Air Force Western Test Range (AFWTR). Debris objects in space refer to the collection of defunct objects orbiting the Earth. Examples of debris include non-operational satellites, rocket bodies, and fragments generated from explosions, collisions, or faulty payload assembly.

Loading next visibility...
Identifier
20048, 1965-027BC
Orbit
LEO
Country
Flag of USUS
Related business
Manufacturer
Unknown
Mission
Spacecraft
Bus & Motor
Unknown
Mass
Unknown
Launch date (UTC)
1965-04-03 (61 years ago)
Launch vehicle
Unknown
Launch site
Air Force Western Test Range (AFWTR)
Object type
Payload
Rocket body
Debris
Shape & HBR
Unknown shape, 0.1 m
Radar Cross Section
Medium (>0.1 m² and <1 m²)

Expand to show TLE details & history
Last TLE update: 6 days ago

TLE from 6 days ago
0 OPS 4682 DEB
1 20048U 65027BC  26249.27966833 -.00001012  00000-0 -33049-2 0  9998
2 20048  90.2580 356.2903 0029157  24.2082   3.9336 13.01685132626918
Epoch: 2026-09-06T06:42Z
TLE epoch observation values (Epoch: 2026-09-06T06:42:43.343Z)
Latitude
28.20373°
Longitude
-89.90502°
Altitude
1,236.76 km
Speed
7.249 km/s
True Right ascension
23h 44m 36s
True Declination
28° 04' 11"
Sunlit
Object was in full shadow at epoch
Visualization orbit readout
Latitude
Unknown
Longitude
Unknown
Altitude
Unknown
Speed
Unknown
Apparent Right ascension
Unknown
Apparent Declination
Unknown
Sunlit
N/A
Visualization observer readout
Local Sidereal Time
09:46:49
Azimuth
Unknown
Elevation
Unknown
Doppler factor
Unknown
Orbital elements
Apogee altitude
1,274.865 km
Perigee altitude
1,230.367 km
Semi-major axis
7,630.753 km
Eccentricity
0.00292
Inclination
90.258°
RAAN
356.2903°
Arg. of periapsis
24.2082°
True anomaly
3.9566°
Mean anomaly
3.9336°
Eccentric anomaly
3.94509°
Mean motion
3.25606 °/min
Orbital period
110.56 mins
BSTAR
-0.0033049
Loading maneuver chart data...
Computing Atmospheric mass density...
Loading historical data...
Loading historical data...
Loading historical data...
Loading historical data...
Loading historical data...
Loading historical data...
Loading historical data...

Documentation

Showing up to 5 results
|